SUOMI NPP

Last updated on Tue Sep 15 2026 00:02:49 GMT+0000 (Coordinated Universal Time)

1 37849U 11061A 26257.64589819 .00000060 00000+0 49468-4 0 9992 2 37849 98.8002 197.9275 0002821 74.9553 285.1935 14.19533123771130
UTC large
Height (km)
Speed (km/s)
/
Latitude / Longitude
Inclination (degrees)
Orbital Period (minutes)
Azimuth
Elevation
Range (km)
Doppler Factor

Next 0 passes for location: London (51.5072 / 0.1276)

No passes found over London.
SUOMI NPP